Simultaneous Nadir Overpasses (SNOs) Predictions

Prediction of SNOs between AQUA and METOP-A Satellite Orbit:

Table of predicted SNOs for the next 14.0 days since TLE Epoch: 7/26/2018
Index Date (AQUA) Time (AQUA) Lat,Lon (AQUA) SZA (AQUA ) Date (METOP-A) Time (METOP-A) Lat,Lon (METOP-A) SZA (METOP-A ) Distance(km) Time Diff (sec)
1 07/27/2018 17:35:22 74.11, -90.12 55.10 07/27/2018 17:34:12 74.06, -91.73 55.14 49.25 70
2 07/27/2018 18:24:55 -74.46, 76.70 124.52 07/27/2018 18:24:45 -74.49, 76.69 124.48 3.66 10
3 07/27/2018 19:14:23 74.51,-115.79 55.55 07/27/2018 19:15:24 74.52,-115.89 55.56 3.34 61
4 07/30/2018 13:09:39 73.93, -23.29 55.56 07/30/2018 13:08:32 73.89, -25.72 55.66 74.89 67
5 07/30/2018 13:59:16 -74.48, 143.05 123.83 07/30/2018 13:59:02 -74.48, 143.07 123.83 0.44 14
6 07/30/2018 14:48:44 74.53, -49.44 56.24 07/30/2018 14:49:40 74.56, -49.40 56.25 2.51 56
7 08/02/2018 08:43:57 73.80, 43.40 56.12 08/02/2018 08:42:52 73.72, 40.29 56.22 97.19 65
8 08/02/2018 09:33:36 -74.46,-150.48 123.15 08/02/2018 09:33:19 -74.47,-150.56 123.14 2.68 17
9 08/02/2018 10:23:05 74.56, 16.91 56.97 08/02/2018 10:23:57 74.54, 16.96 56.94 3.20 52
10 08/05/2018 05:07:56 -74.49, -84.14 122.38 08/05/2018 05:07:34 -74.50, -84.07 122.37 2.33 22
11 08/05/2018 05:57:24 74.54, 83.37 57.69 08/05/2018 05:58:12 74.56, 83.44 57.70 3.10 48
12 08/08/2018 00:42:16 -74.48, -17.69 121.62 08/08/2018 00:41:51 -74.48, -17.71 121.61 0.70 25
13 08/08/2018 01:31:44 74.53, 149.82 58.45 08/08/2018 01:32:29 74.54, 149.79 58.46 2.01 45




NCC Satellite Simultaneous Nadir Overpasses (SNOs) Prediction Service
